IRIDIUM 106 1 41917U 17003A 26036.02368304 .00000071 00000+0 18407-4 0 9997 2 41917 86.4026 143.7980 0001833 88.5287 271.6118 14.34217999474263 IRIDIUM 103 1 41918U 17003B 26036.01100836 .00000398 00000+0 13512-3 0 9994 2 41918 86.4020 143.7036 0002504 94.3743 265.7739 14.34217184474289 IRIDIUM 109 1 41919U 17003C 26036.01734155 .00000391 00000+0 13257-3 0 9991 2 41919 86.4024 143.7583 0002130 95.8027 264.3412 14.34218727474251 IRIDIUM 102 1 41920U 17003D 26035.84608664 .00000393 00000+0 13318-3 0 9998 2 41920 86.4022 143.7562 0002092 99.3229 260.8203 14.34220881474318 IRIDIUM 105 1 41921U 17003E 26036.09500368 .00000371 00000+0 12486-3 0 9990 2 41921 86.3971 112.1294 0002212 98.1957 261.9490 14.34401768476207 IRIDIUM 104 1 41922U 17003F 26036.13785094 .00000350 00000+0 11776-3 0 9995 2 41922 86.4023 143.6750 0002457 101.3630 258.7842 14.34219055474343 IRIDIUM 114 1 41923U 17003G 26036.14418801 .00000409 00000+0 13892-3 0 9992 2 41923 86.4021 143.6560 0002342 97.5912 262.5549 14.34221259474327 IRIDIUM 108 1 41924U 17003H 26036.17248258 .00000137 00000+0 41901-4 0 9994 2 41924 86.3965 111.9845 0002103 101.0011 259.1421 14.34217132476186 IRIDIUM 112 1 41925U 17003J 26036.13150752 .00000359 00000+0 12108-3 0 9994 2 41925 86.4017 143.5096 0002172 100.1419 260.0022 14.34217980474348 IRIDIUM 111 1 41926U 17003K 26036.04905506 .00000379 00000+0 12844-3 0 9999 2 41926 86.4019 143.6115 0002167 96.0370 264.1073 14.34218981474317 IRIDIUM 113 1 42803U 17039A 26036.16855572 .00000067 00000+0 17020-4 0 9999 2 42803 86.3980 17.3335 0002364 89.9606 270.1861 14.34217933452269 IRIDIUM 123 1 42804U 17039B 26036.00072850 .00000038 00000+0 66627-5 0 9999 2 42804 86.3927 48.8789 0002358 85.1894 274.9571 14.34217598451001 IRIDIUM 120 1 42805U 17039C 26036.02267483 .00000347 00000+0 11670-3 0 9999 2 42805 86.3966 17.1939 0001963 84.6474 275.4946 14.34219199452237 IRIDIUM 115 1 42806U 17039D 26036.18199885 .00000513 00000+0 14647-3 0 9999 2 42806 86.4505 17.2378 0002285 76.8391 283.3065 14.43279889455229 IRIDIUM 118 1 42807U 17039E 26036.03244120 .00000003 00000+0 -61032-5 0 9994 2 42807 86.3926 48.8644 0002223 92.0302 268.1148 14.34217057451000 IRIDIUM 117 1 42808U 17039F 26035.98170023 .00000052 00000+0 11649-4 0 9999 2 42808 86.3926 48.8443 0002304 87.1921 272.9538 14.34217581451020 IRIDIUM 126 1 42809U 17039G 26036.00707032 .00000022 00000+0 94007-6 0 9998 2 42809 86.3926 48.8827 0002389 89.1763 270.9706 14.34217264451007 IRIDIUM 124 1 42810U 17039H 26035.90781166 .00000550 00000+0 15760-3 0 9990 2 42810 86.4531 345.6634 0002310 81.2632 278.8830 14.43278564456031 IRIDIUM 128 1 42811U 17039J 26036.06758733 .00000347 00000+0 11681-3 0 9995 2 42811 86.3922 80.4029 0002017 89.6432 270.4995 14.34216591451049 IRIDIUM 121 1 42812U 17039K 26036.02609476 .00000163 00000+0 51154-4 0 9997 2 42812 86.3928 48.9016 0002120 91.0086 269.1352 14.34217128450888 IRIDIUM 133 1 42955U 17061A 26036.02952251 .00000222 00000+0 72042-4 0 9997 2 42955 86.3922 80.5335 0002215 91.5425 268.6025 14.34217705435833 IRIDIUM 100 1 42956U 17061B 26036.02317971 .00000313 00000+0 10465-3 0 9993 2 42956 86.3922 80.4579 0002206 92.9554 267.1894 14.34219496435838 IRIDIUM 122 1 42957U 17061C 26036.06123499 .00000110 00000+0 32201-4 0 9996 2 42957 86.3922 80.4417 0002325 91.0695 269.0767 14.34218365435843 IRIDIUM 129 1 42958U 17061D 26036.08660543 .00000130 00000+0 39509-4 0 9995 2 42958 86.3922 80.4967 0002413 101.2639 258.8828 14.34218348435861 IRIDIUM 119 1 42959U 17061E 26036.05489239 .00000161 00000+0 50590-4 0 9991 2 42959 86.3922 80.5052 0002408 94.9563 265.1908 14.34218555435877 IRIDIUM 107 1 42960U 17061F 26036.07392015 .00000197 00000+0 63350-4 0 9997 2 42960 86.3925 80.5179 0002373 85.0479 275.0988 14.34218614435885 IRIDIUM 132 1 42961U 17061G 26036.08026212 .00000312 00000+0 10430-3 0 9991 2 42961 86.3921 80.4957 0002234 89.4611 270.6840 14.34217139435886 IRIDIUM 136 1 42962U 17061H 26036.11197569 .00000280 00000+0 92993-4 0 9999 2 42962 86.3923 80.4880 0002335 92.8895 267.2568 14.34217931435900 IRIDIUM 139 1 42963U 17061J 26036.04854902 .00000212 00000+0 68671-4 0 9994 2 42963 86.3923 80.5746 0002192 91.0763 269.0684 14.34218517435909 IRIDIUM 125 1 42964U 17061K 26036.03586353 .00000218 00000+0 70935-4 0 9998 2 42964 86.3926 80.6387 0002747 87.6274 272.5236 14.34217325435918 IRIDIUM 135 1 43070U 17083A 26035.94022232 .00000020 00000+0 88216-7 0 9996 2 43070 86.3973 17.2739 0002219 88.7870 271.3580 14.34217790425198 IRIDIUM 138 1 43071U 17083B 26036.03536039 .00000341 00000+0 11484-3 0 9998 2 43071 86.3985 16.9094 0002576 91.1613 268.9878 14.34219124425196 IRIDIUM 116 1 43072U 17083C 26036.00364619 .00000247 00000+0 81249-4 0 9991 2 43072 86.3971 17.2351 0001885 83.0027 277.1383 14.34218001425223 IRIDIUM 130 1 43073U 17083D 26036.18124023 .00000068 00000+0 17057-4 0 9991 2 43073 86.3980 17.4231 0002096 80.4955 279.6478 14.34217885425196 IRIDIUM 151 1 43074U 17083E 26035.87679588 -.00000006 00000+0 -90926-5 0 9999 2 43074 86.3966 17.3426 0002058 85.9506 274.1925 14.34216430425176 IRIDIUM 134 1 43075U 17083F 26036.19392420 .00000131 00000+0 39819-4 0 9993 2 43075 86.3973 17.2166 0002236 84.2550 275.8900 14.34217572425184 IRIDIUM 137 1 43076U 17083G 26036.20660671 .00000307 00000+0 10241-3 0 9994 2 43076 86.3975 17.3013 0001720 91.9908 268.1485 14.34217448425251 IRIDIUM 141 1 43077U 17083H 26035.92119463 .00000051 00000+0 11080-4 0 9990 2 43077 86.3976 17.2591 0002263 89.3820 270.7635 14.34217782425213 IRIDIUM 153 1 43078U 17083J 26035.94314183 .00000377 00000+0 12772-3 0 9998 2 43078 86.4011 345.7553 0002467 84.9110 275.2367 14.34219543426323 IRIDIUM 131 1 43079U 17083K 26036.18758134 .00000355 00000+0 11987-3 0 9997 2 43079 86.3978 17.3246 0002240 89.8659 270.2794 14.34214151425189 IRIDIUM 144 1 43249U 18030A 26035.94948306 .00000226 00000+0 73751-4 0 9999 2 43249 86.4010 345.6850 0002041 82.5031 277.6396 14.34218679411180 IRIDIUM 149 1 43250U 18030B 26035.88605733 .00000349 00000+0 11744-3 0 9997 2 43250 86.4008 345.6800 0002234 85.7788 274.3664 14.34218562411196 IRIDIUM 157 1 43251U 18030C 26036.11439122 .00000032 00000+0 42450-5 0 9991 2 43251 86.4011 345.6349 0002154 86.1576 273.9866 14.34217831411209 IRIDIUM 140 1 43252U 18030D 26035.99388196 .00000174 00000+0 55076-4 0 9995 2 43252 86.4009 345.6979 0002183 83.2953 276.8492 14.34218312411241 IRIDIUM 145 1 43253U 18030E 26035.98119579 .00000376 00000+0 12718-3 0 9991 2 43253 86.4009 345.6758 0001911 78.4929 281.6481 14.34219011411175 IRIDIUM 146 1 43254U 18030F 26035.89240014 -.00000017 00000+0 -13088-4 0 9997 2 43254 86.4003 345.7261 0001939 83.6503 276.4913 14.34218137411176 IRIDIUM 148 1 43255U 18030G 26035.93045566 .00000464 00000+0 15868-3 0 9999 2 43255 86.4006 345.7502 0002230 87.1811 272.9640 14.34219596411217 IRIDIUM 142 1 43256U 18030H 26035.89874266 .00000366 00000+0 12345-3 0 9990 2 43256 86.4005 345.6579 0001906 78.1601 281.9809 14.34219018411177 IRIDIUM 150 1 43257U 18030J 26036.14609837 .00000426 00000+0 14501-3 0 9993 2 43257 86.4012 345.6664 0002173 82.9195 277.2248 14.34217169411236 IRIDIUM 143 1 43258U 18030K 26035.91776999 .00000247 00000+0 81041-4 0 9997 2 43258 86.4015 345.8491 0002067 80.2108 279.9321 14.34217954411139 IRIDIUM 161 1 43478U 18047C 26035.81643316 .00000514 00000+0 14675-3 0 9999 2 43478 86.4523 143.8081 0001722 100.7892 259.3503 14.43293084406049 IRIDIUM 152 1 43479U 18047D 26036.16956383 .00000235 00000+0 76984-4 0 9992 2 43479 86.4012 143.5206 0002274 97.7082 262.4372 14.34218680403560 IRIDIUM 147 1 43480U 18047E 26036.17590554 .00000063 00000+0 15537-4 0 9995 2 43480 86.4016 143.5210 0001963 95.9762 264.1658 14.34218355403565 IRIDIUM 110 1 43481U 18047F 26035.83340777 .00000391 00000+0 13252-3 0 9993 2 43481 86.4021 143.7523 0002454 104.8447 255.3020 14.34218389403503 IRIDIUM 162 1 43482U 18047G 26035.81011395 .00000506 00000+0 14456-3 0 9998 2 43482 86.4542 143.7030 0002265 91.6358 268.5102 14.43275538406036 IRIDIUM 160 1 43569U 18061A 26036.12808417 .00000336 00000+0 11284-3 0 9991 2 43569 86.3970 112.0355 0002258 100.1552 259.9899 14.34219421394446 IRIDIUM 166 1 43570U 18061B 26036.15345413 .00000017 00000+0 -11432-5 0 9992 2 43570 86.3970 111.9768 0001929 96.3075 263.8341 14.34217835394470 IRIDIUM 158 1 43571U 18061C 26036.12174192 .00000227 00000+0 73923-4 0 9998 2 43571 86.3958 111.9994 0002370 92.7556 267.3912 14.34218706394430 IRIDIUM 165 1 43572U 18061D 26036.14711461 .00000343 00000+0 11558-3 0 9991 2 43572 86.3969 112.0334 0002073 95.7448 264.3984 14.34219032394468 IRIDIUM 155 1 43573U 18061E 26036.10905673 .00000085 00000+0 23355-4 0 9990 2 43573 86.3970 111.9250 0002151 91.7584 268.3858 14.34217913394426 IRIDIUM 154 1 43574U 18061F 26036.09003970 .00000336 00000+0 11306-3 0 9999 2 43574 86.3969 112.0599 0002021 96.5189 263.6237 14.34220594394476 IRIDIUM 163 1 43575U 18061G 26036.07100175 .00000336 00000+0 11284-3 0 9998 2 43575 86.3967 111.9875 0002297 96.1022 264.0436 14.34219658394449 IRIDIUM 156 1 43576U 18061H 26036.18516777 .00000195 00000+0 62423-4 0 9995 2 43576 86.3965 111.9467 0002161 90.2501 269.8943 14.34218316394459 IRIDIUM 164 1 43577U 18061J 26036.09637046 .00000259 00000+0 85584-4 0 9993 2 43577 86.3968 112.0221 0001986 99.8532 260.2888 14.34218263394483 IRIDIUM 159 1 43578U 18061K 26036.13443610 .00000343 00000+0 11550-3 0 9996 2 43578 86.3967 111.9459 0002270 99.4584 260.6868 14.34216481394453 IRIDIUM 180 1 43922U 19002A 26035.99438052 -.00000045 00000+0 -23262-4 0 9997 2 43922 86.3923 48.8431 0002261 93.8281 266.3173 14.34215704370046 IRIDIUM 176 1 43923U 19002B 26036.02978105 .00000499 00000+0 75225-4 0 9998 2 43923 86.6049 48.7904 0002467 89.7776 270.3723 14.72250022379807 IRIDIUM 168 1 43924U 19002C 26035.98804317 .00000017 00000+0 -90008-6 0 9991 2 43924 86.3929 48.9192 0002256 90.8046 269.3408 14.34217740370023 IRIDIUM 173 1 43925U 19002D 26036.04512561 .00000089 00000+0 24787-4 0 9994 2 43925 86.3924 48.7894 0002342 88.4142 271.7322 14.34217975370013 IRIDIUM 169 1 43926U 19002E 26036.09628102 .00000358 00000+0 11052-3 0 9998 2 43926 86.4177 80.4327 0002751 76.6511 283.4994 14.38610707371236 IRIDIUM 172 1 43927U 19002F 26036.03878389 .00000077 00000+0 20304-4 0 9996 2 43927 86.3926 48.7996 0002273 94.9877 265.1579 14.34217798370025 IRIDIUM 175 1 43928U 19002G 26035.82122736 .00001335 00000+0 20767-3 0 9991 2 43928 86.1538 348.2454 0001273 73.0362 287.0994 14.72253037379768 IRIDIUM 171 1 43929U 19002H 26036.01975427 .00000150 00000+0 46448-4 0 9996 2 43929 86.3936 49.0995 0002045 86.5827 273.5602 14.34217467370012 IRIDIUM 170 1 43930U 19002J 26036.03597023 .00000499 00000+0 75217-4 0 9994 2 43930 86.6048 48.7912 0002365 93.0293 267.1195 14.72247933379817 IRIDIUM 167 1 43931U 19002K 26036.01340008 .00000182 00000+0 57888-4 0 9995 2 43931 86.3925 48.8315 0002082 81.0484 279.0947 14.34219145370014 IRIDIUM 181 1 56726U 23068S 26036.17262250 .00000455 00000+0 12933-3 0 9991 2 56726 86.4504 111.9966 0002026 104.7126 255.4300 14.43308343143391 IRIDIUM 177 1 56727U 23068T 26036.09383927 .00000689 00000+0 87214-4 0 9992 2 56727 86.1949 31.5007 0002394 88.9992 271.1503 14.80224013146820 IRIDIUM 174 1 56728U 23068U 26036.02359270 .00000550 00000+0 83389-4 0 9996 2 56728 86.6057 48.9304 0002538 92.6583 267.4924 14.72247772146571 IRIDIUM 178 1 56729U 23068V 26036.08296355 .00001430 00000+0 18476-3 0 9999 2 56729 86.6495 80.5853 0001960 82.9062 277.2382 14.80237005146823 IRIDIUM 179 1 56730U 23068W 26036.07757708 .00001446 00000+0 18683-3 0 9991 2 56730 86.6742 89.1800 0002262 91.5281 268.6199 14.80241004146826